Tracking 27420 objects as of 28-May-2023
HD Live streaming from Space Station
objects crossing your sky now

STARLINK-30101

Track STARLINK-30101 now!
10-day predictions
STARLINK-30101 is classified as:


NORAD ID: 56301
Int'l Code: 2023-056R
Perigee: 500.0 km
Apogee: 502.0 km
Inclination: 43.0 °
Period: 94.5 minutes
Semi major axis: 6872 km
RCS: Unknown
Launch date: April 19, 2023
Source: United States (US)
Launch site: AIR FORCE EASTERN TEST RANGE (AFETR)
Your satellite tracking list
Your tracking list is empty




NASA's NSSDC Master Catalog

Two Line Element Set (TLE):
1 56301U 23056R   23148.25001157 -.02124283  00000-0 -95958-1 0  9991
2 56301  43.0013 338.6624 0001478 262.0061  37.7272 15.23967203  1307
Source of the keplerian elements: AFSPC